Location: Elmsmere
(40.9284°N, 73.8207°W)
Time: 10:19:11
(UTC+00:00)

Cosmos 2278 - Pass Details

Date: 29 October 2020
Orbit: 842 x 851 km, 71.1° (Epoch: 23 November)

Event Time Altitude Azimuth Distance (km) Brightness Sun altitude
Rises 23:06:33 0° 181° (S) 3,396 6.9 -14.2°
Reaches altitude 10° 23:09:07 10° 175° (S) 2,464 6.1 -14.7°
Maximum altitude 23:14:23 42° 106° (ESE) 1,200 4.1 -15.6°
Enters shadow 23:18:43 15° 41° (NE) 2,141 5.4 -16.5°
